This is the latest recevied weather packets stored in our database for station/object WA1OUI. If no packets are shown the sender has not sent any weather packets the latest 10 day(s).
| Time | Temp. | Humidity | Pressure | Rain* | Wind** | Luminosity | Snow |
|---|---|---|---|---|---|---|---|
| 1778020618 | 21.67° C | 53% | 1005.5 hPa | 0 mm | - | 33 W/m² | - |
| 1778020313 | 21.67° C | 54% | 1005.7 hPa | 0 mm | - | 40 W/m² | - |
| 1778020010 | 21.67° C | 53% | 1005.4 hPa | 0 mm | - | 37 W/m² | - |
| 1778019706 | 21.67° C | 53% | 1005.4 hPa | 0 mm | - | 35 W/m² | - |
| 1778019403 | 21.67° C | 53% | 1005.4 hPa | 0 mm | - | 37 W/m² | - |
| 1778019100 | 22.22° C | 52% | 1005.2 hPa | 0 mm | - | 36 W/m² | - |
| 1778018797 | 22.22° C | 51% | 1004.9 hPa | 0 mm | - | 35 W/m² | - |
| 1778018495 | 22.22° C | 51% | 1005.4 hPa | 0 mm | - | 40 W/m² | - |
| 1778018192 | 22.78° C | 51% | 1005.3 hPa | 0 mm | - | 41 W/m² | - |
| 1778017890 | 22.78° C | 50% | 1005.4 hPa | 0 mm | - | 48 W/m² | - |
| 1778017588 | 22.78° C | 50% | 1005.4 hPa | 0 mm | - | 54 W/m² | - |
| 1778017285 | 22.78° C | 49% | 1005.5 hPa | 0 mm | - | 51 W/m² | - |
| 1778016983 | 23.33° C | 48% | 1005.6 hPa | 0 mm | - | 56 W/m² | - |
| 1778016679 | 23.33° C | 48% | 1005.4 hPa | 0 mm | - | 64 W/m² | - |
| 1778016375 | 23.89° C | 49% | 1005.2 hPa | 0 mm | - | 71 W/m² | - |
| 1778016073 | 23.89° C | 48% | 1005.4 hPa | 0 mm | - | 82 W/m² | - |
| 1778015769 | 23.89° C | 48% | 1005.3 hPa | 0 mm | - | 95 W/m² | - |
| 1778015467 | 23.89° C | 47% | 1005.3 hPa | 0 mm | - | 110 W/m² | - |
| 1778015163 | 24.44° C | 46% | 1005.4 hPa | 0 mm | - | 113 W/m² | - |
| 1778014860 | 24.44° C | 48% | 1005.4 hPa | 0 mm | - | 131 W/m² | - |
| 1778014558 | 24.44° C | 46% | 1005.3 hPa | 0 mm | - | 127 W/m² | - |
| 1778014255 | 24.44° C | 46% | 1005.6 hPa | 0 mm | - | 132 W/m² | - |
| 1778013952 | 24.44° C | 46% | 1005.3 hPa | 0 mm | - | 148 W/m² | - |
| 1778013650 | 25° C | 45% | 1005.1 hPa | 0 mm | - | 204 W/m² | - |
| 1778013346 | 25.56° C | 44% | 1005.2 hPa | 0 mm | - | 230 W/m² | - |
* Rain latest hour (hover to see other rain measurements)
** Current wind speed in m/s (hover to see current wind gust speed)